����������;��������(kVARh)
2018-02-05 00:00;0,15
2018-02-05 00:15;0,2
2018-02-05 00:30;0,7
2018-02-05 00:45;1,2
2018-02-05 01:00;0,8
2018-02-05 01:15;1,4
2018-02-05 01:30;1,05
2018-02-05 01:45;2,3
2018-02-05 02:00;4,45
2018-02-05 02:15;7,3
2018-02-05 02:30;12,2
2018-02-05 02:45;12,65
2018-02-05 03:00;12,7
2018-02-05 03:15;11,7
2018-02-05 03:30;11
2018-02-05 03:45;11,3
2018-02-05 04:00;12,25
2018-02-05 04:15;11,8
2018-02-05 04:30;11,9
2018-02-05 04:45;11,3
2018-02-05 05:00;11
2018-02-05 05:15;11,4
2018-02-05 05:30;10,9
2018-02-05 05:45;9,8
2018-02-05 06:00;9,9
2018-02-05 06:15;11,2
2018-02-05 06:30;10
2018-02-05 06:45;8,4
2018-02-05 07:00;13,1
2018-02-05 07:15;13,5
2018-02-05 07:30;38,3
2018-02-05 07:45;12,8
2018-02-05 08:00;9,7
2018-02-05 08:15;9,4
2018-02-05 08:30;13,05
2018-02-05 08:45;15,95
2018-02-05 09:00;27,25
2018-02-05 09:15;57,2
2018-02-05 09:30;61,05
2018-02-05 09:45;41,65
2018-02-05 10:00;40,55
2018-02-05 10:15;42,3
2018-02-05 10:30;64,55
2018-02-05 10:45;62,4
2018-02-05 11:00;63,25
2018-02-05 11:15;56
2018-02-05 11:30;70,45
2018-02-05 11:45;54,2
2018-02-05 12:00;63,3
2018-02-05 12:15;62,65
2018-02-05 12:30;61,4
2018-02-05 12:45;63,85
2018-02-05 13:00;61,55
2018-02-05 13:15;77,7
2018-02-05 13:30;60,65
2018-02-05 13:45;67,35
2018-02-05 14:00;58,1
2018-02-05 14:15;65,6
2018-02-05 14:30;57,05
2018-02-05 14:45;63,6
2018-02-05 15:00;56,75
2018-02-05 15:15;48,75
2018-02-05 15:30;45,8
2018-02-05 15:45;46,45
2018-02-05 16:00;40,9
2018-02-05 16:15;40,25
2018-02-05 16:30;37,2
2018-02-05 16:45;38,4
2018-02-05 17:00;40,4
2018-02-05 17:15;38,95
2018-02-05 17:30;34,75
2018-02-05 17:45;30,85
2018-02-05 18:00;28,3
2018-02-05 18:15;23,95
2018-02-05 18:30;19,35
2018-02-05 18:45;22
2018-02-05 19:00;21,5
2018-02-05 19:15;20,6
2018-02-05 19:30;18,55
2018-02-05 19:45;17,55
2018-02-05 20:00;17,5
2018-02-05 20:15;16,5
2018-02-05 20:30;15,5
2018-02-05 20:45;13,6
2018-02-05 21:00;13,1
2018-02-05 21:15;14,4
2018-02-05 21:30;16
2018-02-05 21:45;15
2018-02-05 22:00;15,7
2018-02-05 22:15;15,45
2018-02-05 22:30;11,05
2018-02-05 22:45;7,4
2018-02-05 23:00;7,35
2018-02-05 23:15;6,6
2018-02-05 23:30;8,3
2018-02-05 23:45;10,1
2018-02-06 00:00;4,65
2018-02-06 00:15;8,5
2018-02-06 00:30;9,45
2018-02-06 00:45;10,95
2018-02-06 01:00;9,7
2018-02-06 01:15;11
2018-02-06 01:30;11,2
2018-02-06 01:45;13,75
2018-02-06 02:00;14,4
2018-02-06 02:15;18
2018-02-06 02:30;19,9
2018-02-06 02:45;18,95
2018-02-06 03:00;15,7
2018-02-06 03:15;15,7
2018-02-06 03:30;16,05
2018-02-06 03:45;16,35
2018-02-06 04:00;16
2018-02-06 04:15;16,35
2018-02-06 04:30;15,95
2018-02-06 04:45;14,95
2018-02-06 05:00;14,35
2018-02-06 05:15;14,4
2018-02-06 05:30;13,7
2018-02-06 05:45;12,8
2018-02-06 06:00;13,1
2018-02-06 06:15;14,15
2018-02-06 06:30;13,35
2018-02-06 06:45;11,15
2018-02-06 07:00;11,4
2018-02-06 07:15;13,25
2018-02-06 07:30;40,15
2018-02-06 07:45;45,5
2018-02-06 08:00;34,65
2018-02-06 08:15;32,35
2018-02-06 08:30;28,15
2018-02-06 08:45;44,2
2018-02-06 09:00;27,15
2018-02-06 09:15;29,05
2018-02-06 09:30;28,85
2018-02-06 09:45;29,7
2018-02-06 10:00;33,05
2018-02-06 10:15;35,85
2018-02-06 10:30;40,3
2018-02-06 10:45;45,55
2018-02-06 11:00;46,3
2018-02-06 11:15;49,3
2018-02-06 11:30;46,3
2018-02-06 11:45;45,3
2018-02-06 12:00;45,55
2018-02-06 12:15;45,65
2018-02-06 12:30;44,1
2018-02-06 12:45;44
2018-02-06 13:00;45,55
2018-02-06 13:15;45,35
2018-02-06 13:30;45,2
2018-02-06 13:45;43,1
2018-02-06 14:00;44,7
2018-02-06 14:15;43,35
2018-02-06 14:30;41,8
2018-02-06 14:45;40,5
2018-02-06 15:00;40,5
2018-02-06 15:15;38,65
2018-02-06 15:30;36,5
2018-02-06 15:45;35,25
2018-02-06 16:00;33,6
2018-02-06 16:15;33,8
2018-02-06 16:30;34,35
2018-02-06 16:45;35,1
2018-02-06 17:00;32,85
2018-02-06 17:15;31,15
2018-02-06 17:30;29,75
2018-02-06 17:45;28,9
2018-02-06 18:00;27,15
2018-02-06 18:15;23,2
2018-02-06 18:30;19,7
2018-02-06 18:45;19,55
2018-02-06 19:00;18,95
2018-02-06 19:15;21,1
2018-02-06 19:30;22,7
2018-02-06 19:45;22,6
2018-02-06 20:00;21,4
2018-02-06 20:15;20
2018-02-06 20:30;19,15
2018-02-06 20:45;18,6
2018-02-06 21:00;17,05
2018-02-06 21:15;17,2
2018-02-06 21:30;15,1
2018-02-06 21:45;13,6
2018-02-06 22:00;14,65
2018-02-06 22:15;8,35
2018-02-06 22:30;6,8
2018-02-06 22:45;8,9
2018-02-06 23:00;11,2
2018-02-06 23:15;9,3
2018-02-06 23:30;12
2018-02-06 23:45;12,7
2018-02-07 00:00;7,05
2018-02-07 00:15;5,35
2018-02-07 00:30;6,95
2018-02-07 00:45;8,7
2018-02-07 01:00;7,95
2018-02-07 01:15;9,6
2018-02-07 01:30;8,3
2018-02-07 01:45;10,6
2018-02-07 02:00;11,4
2018-02-07 02:15;12,7
2018-02-07 02:30;12,85
2018-02-07 02:45;12,85
2018-02-07 03:00;14,05
2018-02-07 03:15;13,25
2018-02-07 03:30;14,85
2018-02-07 03:45;15,65
2018-02-07 04:00;16,1
2018-02-07 04:15;16,25
2018-02-07 04:30;13,35
2018-02-07 04:45;13,9
2018-02-07 05:00;11,3
2018-02-07 05:15;10,9
2018-02-07 05:30;10,65
2018-02-07 05:45;12,9
2018-02-07 06:00;11,95
2018-02-07 06:15;11,9
2018-02-07 06:30;11,65
2018-02-07 06:45;10,2
2018-02-07 07:00;9,2
2018-02-07 07:15;11,15
2018-02-07 07:30;12,8
2018-02-07 07:45;25,85
2018-02-07 08:00;30,55
2018-02-07 08:15;28,2
2018-02-07 08:30;32,25
2018-02-07 08:45;33,2
2018-02-07 09:00;36,45
2018-02-07 09:15;35,5
2018-02-07 09:30;36,2
2018-02-07 09:45;38,2
2018-02-07 10:00;41,75
2018-02-07 10:15;52,15
2018-02-07 10:30;83,4
2018-02-07 10:45;84,8
2018-02-07 11:00;73,45
2018-02-07 11:15;71,05
2018-02-07 11:30;69,8
2018-02-07 11:45;68,35
2018-02-07 12:00;71,45
2018-02-07 12:15;72,15
2018-02-07 12:30;68,05
2018-02-07 12:45;66,75
2018-02-07 13:00;59,45
2018-02-07 13:15;69,9
2018-02-07 13:30;57,4
2018-02-07 13:45;63
2018-02-07 14:00;54,9
2018-02-07 14:15;59,85
2018-02-07 14:30;55,55
2018-02-07 14:45;63,7
2018-02-07 15:00;54,5
2018-02-07 15:15;52
2018-02-07 15:30;51,1
2018-02-07 15:45;46,9
2018-02-07 16:00;38,65
2018-02-07 16:15;30,65
2018-02-07 16:30;29,8
2018-02-07 16:45;29,9
2018-02-07 17:00;29,35
2018-02-07 17:15;28,4
2018-02-07 17:30;26,15
2018-02-07 17:45;28,7
2018-02-07 18:00;28
2018-02-07 18:15;21,2
2018-02-07 18:30;21,3
2018-02-07 18:45;21
2018-02-07 19:00;20,1
2018-02-07 19:15;17,35
2018-02-07 19:30;17,75
2018-02-07 19:45;17,25
2018-02-07 20:00;16,05
2018-02-07 20:15;15,1
2018-02-07 20:30;14,35
2018-02-07 20:45;12,85
2018-02-07 21:00;10,15
2018-02-07 21:15;6,85
2018-02-07 21:30;8,4
2018-02-07 21:45;7
2018-02-07 22:00;4,25
2018-02-07 22:15;3,95
2018-02-07 22:30;5,45
2018-02-07 22:45;6,05
2018-02-07 23:00;9,05
2018-02-07 23:15;6,05
2018-02-07 23:30;6,45
2018-02-07 23:45;2
2018-02-08 00:00;0
2018-02-08 00:15;0,25
2018-02-08 00:30;0,2
2018-02-08 00:45;0,5
2018-02-08 01:00;0,8
2018-02-08 01:15;2
2018-02-08 01:30;2,2
2018-02-08 01:45;1,55
2018-02-08 02:00;1,55
2018-02-08 02:15;3,15
2018-02-08 02:30;2,95
2018-02-08 02:45;4
2018-02-08 03:00;2,65
2018-02-08 03:15;3,25
2018-02-08 03:30;3,5
2018-02-08 03:45;3,5
2018-02-08 04:00;4,6
2018-02-08 04:15;2,4
2018-02-08 04:30;2,9
2018-02-08 04:45;3,55
2018-02-08 05:00;9,15
2018-02-08 05:15;8,9
2018-02-08 05:30;7,8
2018-02-08 05:45;8,35
2018-02-08 06:00;8,05
2018-02-08 06:15;8,15
2018-02-08 06:30;9,55
2018-02-08 06:45;10,1
2018-02-08 07:00;10,75
2018-02-08 07:15;13,85
2018-02-08 07:30;40,85
2018-02-08 07:45;45,5
2018-02-08 08:00;30,1
2018-02-08 08:15;29,7
2018-02-08 08:30;30
2018-02-08 08:45;34,15
2018-02-08 09:00;29,65
2018-02-08 09:15;38,15
2018-02-08 09:30;29,3
2018-02-08 09:45;41,9
2018-02-08 10:00;40,4
2018-02-08 10:15;39,75
2018-02-08 10:30;48,05
2018-02-08 10:45;38,2
2018-02-08 11:00;50
2018-02-08 11:15;54,2
2018-02-08 11:30;48,6
2018-02-08 11:45;56,95
2018-02-08 12:00;55,15
2018-02-08 12:15;48,65
2018-02-08 12:30;62,25
2018-02-08 12:45;48,55
2018-02-08 13:00;56,05
2018-02-08 13:15;53,75
2018-02-08 13:30;59,3
2018-02-08 13:45;50,3
2018-02-08 14:00;42,15
2018-02-08 14:15;39,7
2018-02-08 14:30;43,5
2018-02-08 14:45;36,1
2018-02-08 15:00;40,9
2018-02-08 15:15;29,95
2018-02-08 15:30;31,55
2018-02-08 15:45;27,5
2018-02-08 16:00;22,9
2018-02-08 16:15;24,05
2018-02-08 16:30;21,9
2018-02-08 16:45;23,2
2018-02-08 17:00;20,1
2018-02-08 17:15;20,3
2018-02-08 17:30;19,55
2018-02-08 17:45;18,7
2018-02-08 18:00;21,2
2018-02-08 18:15;18,7
2018-02-08 18:30;17,25
2018-02-08 18:45;18,65
2018-02-08 19:00;21,2
2018-02-08 19:15;18,3
2018-02-08 19:30;16,8
2018-02-08 19:45;16,7
2018-02-08 20:00;15,7
2018-02-08 20:15;15,8
2018-02-08 20:30;16,15
2018-02-08 20:45;14,25
2018-02-08 21:00;14,85
2018-02-08 21:15;15,25
2018-02-08 21:30;16,5
2018-02-08 21:45;17,6
2018-02-08 22:00;18,7
2018-02-08 22:15;17,3
2018-02-08 22:30;18,2
2018-02-08 22:45;12,95
2018-02-08 23:00;11,35
2018-02-08 23:15;3,5
2018-02-08 23:30;5,1
2018-02-08 23:45;7,45
2018-02-09 00:00;5,95
2018-02-09 00:15;15,3
2018-02-09 00:30;16,95
2018-02-09 00:45;14,85
2018-02-09 01:00;9
2018-02-09 01:15;10
2018-02-09 01:30;11,55
2018-02-09 01:45;11,8
2018-02-09 02:00;13,95
2018-02-09 02:15;13,3
2018-02-09 02:30;13,7
2018-02-09 02:45;13,5
2018-02-09 03:00;13,2
2018-02-09 03:15;13,55
2018-02-09 03:30;13,9
2018-02-09 03:45;13,5
2018-02-09 04:00;14,85
2018-02-09 04:15;13,5
2018-02-09 04:30;13,2
2018-02-09 04:45;13,35
2018-02-09 05:00;11,95
2018-02-09 05:15;12,5
2018-02-09 05:30;12,6
2018-02-09 05:45;12,35
2018-02-09 06:00;10,3
2018-02-09 06:15;10,1
2018-02-09 06:30;9,85
2018-02-09 06:45;9,85
2018-02-09 07:00;9,2
2018-02-09 07:15;9,55
2018-02-09 07:30;10,85
2018-02-09 07:45;13,35
2018-02-09 08:00;15,1
2018-02-09 08:15;20,3
2018-02-09 08:30;30,8
2018-02-09 08:45;34,05
2018-02-09 09:00;35,55
2018-02-09 09:15;41,35
2018-02-09 09:30;41
2018-02-09 09:45;39,65
2018-02-09 10:00;42,1
2018-02-09 10:15;42,8
2018-02-09 10:30;45,65
2018-02-09 10:45;43,9
2018-02-09 11:00;46,4
2018-02-09 11:15;49,05
2018-02-09 11:30;53,75
2018-02-09 11:45;53,85
2018-02-09 12:00;53,6
2018-02-09 12:15;55,65
2018-02-09 12:30;60,75
2018-02-09 12:45;59,3
2018-02-09 13:00;59,5
2018-02-09 13:15;59,4
2018-02-09 13:30;61,7
2018-02-09 13:45;60
2018-02-09 14:00;62,7
2018-02-09 14:15;58,9
2018-02-09 14:30;59,2
2018-02-09 14:45;52,8
2018-02-09 15:00;49,9
2018-02-09 15:15;44,8
2018-02-09 15:30;41,7
2018-02-09 15:45;40,55
2018-02-09 16:00;37,3
2018-02-09 16:15;38,35
2018-02-09 16:30;37,95
2018-02-09 16:45;37,25
2018-02-09 17:00;34,8
2018-02-09 17:15;35,55
2018-02-09 17:30;35,7
2018-02-09 17:45;34,15
2018-02-09 18:00;34,6
2018-02-09 18:15;29
2018-02-09 18:30;26,75
2018-02-09 18:45;24,75
2018-02-09 19:00;29,5
2018-02-09 19:15;28,5
2018-02-09 19:30;25,4
2018-02-09 19:45;22,6
2018-02-09 20:00;23,85
2018-02-09 20:15;21,05
2018-02-09 20:30;21,8
2018-02-09 20:45;19,8
2018-02-09 21:00;20,05
2018-02-09 21:15;21,25
2018-02-09 21:30;19,8
2018-02-09 21:45;18,3
2018-02-09 22:00;14,6
2018-02-09 22:15;15,9
2018-02-09 22:30;13,6
2018-02-09 22:45;15,4
2018-02-09 23:00;17,65
2018-02-09 23:15;16,45
2018-02-09 23:30;19,45
2018-02-09 23:45;20,95
2018-02-10 00:00;18,1
2018-02-10 00:15;20
2018-02-10 00:30;23
2018-02-10 00:45;23
2018-02-10 01:00;24,8
2018-02-10 01:15;20,5
2018-02-10 01:30;13,9
2018-02-10 01:45;10,8
2018-02-10 02:00;11,9
2018-02-10 02:15;10,7
2018-02-10 02:30;12,3
2018-02-10 02:45;13
2018-02-10 03:00;13,5
2018-02-10 03:15;12,55
2018-02-10 03:30;13,45
2018-02-10 03:45;11,65
2018-02-10 04:00;11,1
2018-02-10 04:15;11,15
2018-02-10 04:30;12,9
2018-02-10 04:45;10,9
2018-02-10 05:00;10,65
2018-02-10 05:15;10,05
2018-02-10 05:30;11,5
2018-02-10 05:45;9,8
2018-02-10 06:00;9,7
2018-02-10 06:15;10,4
2018-02-10 06:30;11
2018-02-10 06:45;9,4
2018-02-10 07:00;9
2018-02-10 07:15;8,5
2018-02-10 07:30;9,15
2018-02-10 07:45;7,5
2018-02-10 08:00;9,7
2018-02-10 08:15;9,1
2018-02-10 08:30;8
2018-02-10 08:45;11,7
2018-02-10 09:00;10,9
2018-02-10 09:15;7,5
2018-02-10 09:30;10,25
2018-02-10 09:45;12,5
2018-02-10 10:00;13,65
2018-02-10 10:15;12,85
2018-02-10 10:30;14,45
2018-02-10 10:45;13,5
2018-02-10 11:00;13,85
2018-02-10 11:15;12,8
2018-02-10 11:30;15,45
2018-02-10 11:45;14,8
2018-02-10 12:00;16,6
2018-02-10 12:15;16,45
2018-02-10 12:30;15,95
2018-02-10 12:45;15,15
2018-02-10 13:00;15,05
2018-02-10 13:15;12,95
2018-02-10 13:30;16,4
2018-02-10 13:45;14,55
2018-02-10 14:00;16,45
2018-02-10 14:15;16,35
2018-02-10 14:30;17,35
2018-02-10 14:45;18,6
2018-02-10 15:00;16,7
2018-02-10 15:15;18,3
2018-02-10 15:30;17,5
2018-02-10 15:45;18,35
2018-02-10 16:00;15,95
2018-02-10 16:15;16,35
2018-02-10 16:30;15,2
2018-02-10 16:45;17,55
2018-02-10 17:00;16,1
2018-02-10 17:15;18,6
2018-02-10 17:30;17,2
2018-02-10 17:45;18,45
2018-02-10 18:00;15,45
2018-02-10 18:15;14,6
2018-02-10 18:30;12,35
2018-02-10 18:45;14,45
2018-02-10 19:00;14,4
2018-02-10 19:15;13,15
2018-02-10 19:30;12,85
2018-02-10 19:45;13,45
2018-02-10 20:00;13,8
2018-02-10 20:15;13,1
2018-02-10 20:30;13,75
2018-02-10 20:45;13,3
2018-02-10 21:00;11,7
2018-02-10 21:15;10,65
2018-02-10 21:30;10,05
2018-02-10 21:45;8,8
2018-02-10 22:00;9,7
2018-02-10 22:15;12,65
2018-02-10 22:30;15,05
2018-02-10 22:45;8,1
2018-02-10 23:00;11,65
2018-02-10 23:15;9,95
2018-02-10 23:30;8,9
2018-02-10 23:45;7,3
2018-02-11 00:00;6,7
2018-02-11 00:15;8,55
2018-02-11 00:30;9,2
2018-02-11 00:45;8,7
2018-02-11 01:00;11,05
2018-02-11 01:15;9,2
2018-02-11 01:30;10,9
2018-02-11 01:45;11,8
2018-02-11 02:00;10,8
2018-02-11 02:15;10,2
2018-02-11 02:30;12,25
2018-02-11 02:45;12,05
2018-02-11 03:00;13,95
2018-02-11 03:15;12,25
2018-02-11 03:30;13
2018-02-11 03:45;9,8
2018-02-11 04:00;13,35
2018-02-11 04:15;13,6
2018-02-11 04:30;14,5
2018-02-11 04:45;14,5
2018-02-11 05:00;14,35
2018-02-11 05:15;15,3
2018-02-11 05:30;16,35
2018-02-11 05:45;13,55
2018-02-11 06:00;14,85
2018-02-11 06:15;12,5
2018-02-11 06:30;12,7
2018-02-11 06:45;12,95
2018-02-11 07:00;14,2
2018-02-11 07:15;14,75
2018-02-11 07:30;16,8
2018-02-11 07:45;15,85
2018-02-11 08:00;15,65
2018-02-11 08:15;14,45
2018-02-11 08:30;14,65
2018-02-11 08:45;11,35
2018-02-11 09:00;11,2
2018-02-11 09:15;8,95
2018-02-11 09:30;8,9
2018-02-11 09:45;9,45
2018-02-11 10:00;7,5
2018-02-11 10:15;8,6
2018-02-11 10:30;10,5
2018-02-11 10:45;10,45
2018-02-11 11:00;10,7
2018-02-11 11:15;11,9
2018-02-11 11:30;9,25
2018-02-11 11:45;11,1
2018-02-11 12:00;10,3
2018-02-11 12:15;12,3
2018-02-11 12:30;11,45
2018-02-11 12:45;11,85
2018-02-11 13:00;8,4
2018-02-11 13:15;10
2018-02-11 13:30;8,7
2018-02-11 13:45;9,75
2018-02-11 14:00;8,45
2018-02-11 14:15;10,35
2018-02-11 14:30;12,55
2018-02-11 14:45;10,45
2018-02-11 15:00;10,75
2018-02-11 15:15;9,05
2018-02-11 15:30;10,6
2018-02-11 15:45;9,45
2018-02-11 16:00;9,35
2018-02-11 16:15;8,7
2018-02-11 16:30;9,25
2018-02-11 16:45;8,1
2018-02-11 17:00;9,1
2018-02-11 17:15;7,5
2018-02-11 17:30;10,45
2018-02-11 17:45;10,55
2018-02-11 18:00;9,75
2018-02-11 18:15;7,3
2018-02-11 18:30;7,6
2018-02-11 18:45;10,35
2018-02-11 19:00;11,4
2018-02-11 19:15;7,9
2018-02-11 19:30;8,7
2018-02-11 19:45;8,95
2018-02-11 20:00;10,15
2018-02-11 20:15;7,65
2018-02-11 20:30;6,9
2018-02-11 20:45;5,95
2018-02-11 21:00;6,55
2018-02-11 21:15;6,85
2018-02-11 21:30;5,5
2018-02-11 21:45;6,2
2018-02-11 22:00;5,5
2018-02-11 22:15;7,7
2018-02-11 22:30;6,5
2018-02-11 22:45;7,9
2018-02-11 23:00;8,75
2018-02-11 23:15;8,55
2018-02-11 23:30;9,6
2018-02-11 23:45;13,45

